This is the latest recevied weather packets stored in our database for station/object W4FXD. If no packets are shown the sender has not sent any weather packets the latest 10 day(s).
| Time | Temp. | Humidity | Pressure | Rain* | Wind** | Luminosity | Snow |
|---|---|---|---|---|---|---|---|
| 1778155321 | 11.67° C | 99% | 1013.3 hPa | 0 mm | - | 19 W/m² | - |
| 1778155016 | 11.67° C | 99% | 1013.3 hPa | 0 mm | - | 19 W/m² | - |
| 1778154712 | 12.22° C | 99% | 1013.5 hPa | 0 mm | - | 12 W/m² | - |
| 1778154408 | 11.67° C | 99% | 1013.1 hPa | 0 mm | - | 13 W/m² | - |
| 1778154106 | 12.22° C | 99% | 1013 hPa | 0 mm | - | 7 W/m² | - |
| 1778153803 | 12.22° C | 99% | 1012.9 hPa | 0 mm | - | 16 W/m² | - |
| 1778153500 | 11.67° C | 99% | 1012.9 hPa | 0 mm | - | 15 W/m² | - |
| 1778153198 | 11.67° C | 99% | 1012.6 hPa | 0 mm | - | 19 W/m² | - |
| 1778152894 | 11.67° C | 98% | 1012.4 hPa | 0 mm | - | 6 W/m² | - |
| 1778152592 | 11.67° C | 98% | 1012.9 hPa | 0 mm | - | 3 W/m² | - |
| 1778152288 | 12.22° C | 98% | 1012.9 hPa | 0 mm | - | 2 W/m² | - |
| 1778151984 | 11.67° C | 98% | 1012.9 hPa | 0 mm | - | 1 W/m² | - |
| 1778151681 | 11.67° C | 98% | 1012.9 hPa | 0 mm | - | 1 W/m² | - |
| 1778151378 | 11.67° C | 98% | 1012.6 hPa | 0 mm | - | 1 W/m² | - |
| 1778151074 | 11.67° C | 98% | 1012.6 hPa | 0 mm | - | 0 W/m² | - |
| 1778150772 | 12.22° C | 98% | 1012.7 hPa | 0 mm | - | 0 W/m² | - |
| 1778150468 | 12.22° C | 98% | 1012.9 hPa | 0 mm | - | 0 W/m² | - |
| 1778150164 | 12.22° C | 98% | 1012.8 hPa | 0 mm | - | 0 W/m² | - |
| 1778149861 | 12.22° C | 98% | 1012.8 hPa | 0 mm | - | 0 W/m² | - |
| 1778149557 | 12.22° C | 98% | 1012.6 hPa | 0 mm | - | 0 W/m² | - |
| 1778149253 | 12.22° C | 98% | 1012.7 hPa | 0 mm | - | 0 W/m² | - |
| 1778148949 | 12.22° C | 98% | 1012.6 hPa | 1.78 mm | - | 0 W/m² | - |
| 1778148645 | 12.22° C | 99% | 1012.9 hPa | 1.78 mm | - | 0 W/m² | - |
| 1778148343 | 12.22° C | 99% | 1012.9 hPa | 0 mm | - | 0 W/m² | - |
| 1778148041 | 12.22° C | 99% | 1012.9 hPa | 0 mm | - | 0 W/m² | - |
* Rain latest hour (hover to see other rain measurements)
** Current wind speed in m/s (hover to see current wind gust speed)